Tracking 29528 objects as of 12-Sep-2024
HD Live streaming from Space Station
objects crossing your sky now

FENGYUN 1C DEB

Track FENGYUN 1C DEB now!
10-day predictions


NORAD ID: 30661
Int'l Code: 1999-025APT
Perigee: 726.7 km
Apogee: 935.5 km
Inclination: 99.4 °
Period: 101.4 minutes
Semi major axis: 7202 km
RCS: 0.0103 m2 (small)
Launch date: May 10, 1999
Source: People's Republic of China (PRC)
Launch site: Taiyaun Space Center, China (TSC)

Note: This is SATELLITE DEBRIS
Your satellite tracking list
Your tracking list is empty




NASA's NSSDC Master Catalog

Two Line Element Set (TLE):
1 30661U 99025APT 24256.31008561  .00002038  00000-0  87638-3 0  9992
2 30661  99.4400  33.4628 0144958 252.1518 106.3800 14.20414509914434
Source of the keplerian elements: AFSPC